Stations météo

réclame
Mon MeteoGroup
Helsingborg, Suède (2611): Température de l'air & dewpoint: 11.01.2019 02:00:00 - 17.01.2019 02:00:00 (CET)Helsingborg, Suède (2611): Vitesse du vent & gusts: 11.01.2019 02:00:00 - 17.01.2019 02:00:00 (CET)Helsingborg, Suède (2611): Direction du vent: 11.01.2019 02:00:00 - 17.01.2019 02:00:00 (CET)Helsingborg, Suède (2611): reduced air pressure: 11.01.2019 02:00:00 - 17.01.2019 02:00:00 (CET)Helsingborg, Suède (2611): visibility: 11.01.2019 02:00:00 - 17.01.2019 02:00:00 (CET)Helsingborg, Suède (2611): Quantités de précipitations: 11.01.2019 02:00:00 - 17.01.2019 02:00:00 (CET)
Date & Time tt [°C] td [°C] ff [km/h] ff [knt] fx [km/h] fx [knt] dd ppp [hPa] vv [km] rr [mm]
17.01.2019 02:00:00 - - - - - - - - - -
17.01.2019 01:00:00 4,6 3,4 16 8 45 25 WSW 988,8 9 0,3
17.01.2019 00:00:00 5,3 4,4 23 12 45 25 SW 988,9 6 0,3
16.01.2019 23:00:00 5,5 4,6 22 12 46 25 SSW 990,0 7 0,0
16.01.2019 22:00:00 5,8 4,8 19 11 46 25 SSW 990,7 - 0,0
16.01.2019 21:00:00 6,0 5,0 22 12 35 19 SSW 991,3 7 0,0
16.01.2019 20:00:00 6,4 5,2 21 11 35 19 SSW 991,8 18 0,1
16.01.2019 19:00:00 6,2 5,2 15 8 29 16 SSW 992,6 9 0,0
16.01.2019 18:00:00 6,4 4,9 18 10 28 15 SSW 993,5 24 0,0
16.01.2019 17:00:00 6,0 5,3 15 8 28 15 SSW 994,3 15 0,1
16.01.2019 16:00:00 6,0 5,0 18 10 28 15 SSW 994,9 7 0,1
16.01.2019 15:00:00 6,5 4,5 17 9 29 15 SSW 995,5 18 0,0
16.01.2019 14:00:00 6,5 4,8 17 9 29 16 SW 996,1 18 0,0
16.01.2019 13:00:00 6,5 4,8 17 9 29 16 SW 996,6 14 0,0
16.01.2019 12:00:00 6,2 4,8 16 9 29 16 SW 997,3 14 0,0
16.01.2019 11:00:00 6,1 4,9 16 9 32 18 SW 997,9 10 0,0
16.01.2019 10:00:00 6,1 4,9 16 9 36 19 SW 998,4 14 0,0
16.01.2019 09:00:00 6,0 5,1 17 9 36 19 WSW 998,4 12 0,0
16.01.2019 08:00:00 5,1 4,8 9 5 20 11 SSW 998,6 5 0,8
16.01.2019 07:00:00 4,3 3,9 12 6 19 10 S 999,0 2,6 1,4
16.01.2019 06:00:00 4,4 3,8 8 4 20 11 SSW 999,6 3,5 0,6
16.01.2019 05:00:00 4,5 3,6 9 5 23 12 SW 1000,2 7 0,5
16.01.2019 04:00:00 5,2 2,5 11 6 24 13 WSW 1000,3 30 0,0
16.01.2019 03:00:00 5,6 2,1 13 7 37 20 W 1000,4 27 0,0
16.01.2019 02:00:00 5,5 3,2 14 8 39 21 W 1000,2 16 0,0
16.01.2019 01:00:00 5,6 3,1 16 9 39 21 W 999,8 14 0,0
16.01.2019 00:00:00 5,7 2,9 19 10 49 27 W 999,7 15 0,0
15.01.2019 23:00:00 5,8 2,8 23 12 50 27 WNW 999,4 15 0,0
15.01.2019 22:00:00 5,9 2,5 26 14 50 27 WNW 998,9 15 0,0
15.01.2019 21:00:00 5,9 2,7 23 13 56 31 WNW 998,6 13 0,0
15.01.2019 20:00:00 5,5 2,7 24 13 61 33 WNW 998,2 12 0,0
15.01.2019 19:00:00 5,7 2,7 33 18 61 33 WNW 997,7 13 0,0
15.01.2019 18:00:00 5,8 3,3 24 13 56 30 WNW 997,1 11 0,0
15.01.2019 17:00:00 6,3 3,8 26 14 54 29 W 996,6 15 0,0
15.01.2019 16:00:00 6,5 4,8 24 13 54 29 W 996,4 22 0,2
15.01.2019 15:00:00 5,8 5,4 22 12 39 21 WSW 996,2 6 0,1
15.01.2019 14:00:00 2,7 2,3 16 8 23 12 S 997,5 2,3 0,8
15.01.2019 13:00:00 2,3 1,6 11 6 19 10 SW 999,3 2,9 1,0
15.01.2019 12:00:00 2,5 1,3 10 6 20 11 SW 1001,0 9 0,2
15.01.2019 11:00:00 3,1 1,0 8 5 23 13 WSW 1002,3 30 0,0
15.01.2019 10:00:00 2,7 1,1 11 6 23 13 W 1002,8 34 0,0
15.01.2019 09:00:00 2,4 0,9 9 5 29 15 W 1002,7 32 0,0
15.01.2019 08:00:00 2,6 1,0 13 7 33 18 W 1002,5 26 0,0
15.01.2019 07:00:00 1,8 -1,6 8 5 41 22 WNW 1002,3 17 0,1
15.01.2019 06:00:00 2,9 -1,8 16 9 49 26 NW 1002,7 50 0,0
15.01.2019 05:00:00 3,1 -1,8 20 11 49 26 WNW 1003,1 45 0,0
15.01.2019 04:00:00 3,0 -2,7 21 12 47 26 NW 1003,4 40 0,0
15.01.2019 03:00:00 2,7 -3,6 24 13 47 26 WNW 1003,5 37 0,0
15.01.2019 02:00:00 2,5 -4,3 21 12 43 23 WNW 1003,2 46 0,0
15.01.2019 01:00:00 2,2 -4,1 18 10 49 26 NW 1003,1 46 0,0
15.01.2019 00:00:00 2,5 -4,3 22 12 49 26 WNW 1002,8 38 0,0
14.01.2019 23:00:00 2,3 -3,8 23 12 54 29 NW 1002,5 36 0,0
14.01.2019 22:00:00 2,4 -3,9 25 14 58 31 NW 1002,1 34 0,0
14.01.2019 21:00:00 2,6 -4,4 24 13 58 31 NW 1001,5 45 0,0
14.01.2019 20:00:00 2,5 -4,5 23 12 54 29 WNW 1001,0 37 0,0
14.01.2019 19:00:00 2,6 -4,8 26 14 64 35 WNW 1000,5 39 0,0
14.01.2019 18:00:00 2,2 -4,3 26 14 64 35 WNW 1000,1 34 0,0
14.01.2019 17:00:00 2,1 -5,3 27 14 58 32 NW 999,6 37 0,0
14.01.2019 16:00:00 2,0 -6,3 26 14 54 29 WNW 998,6 48 0,0
14.01.2019 15:00:00 2,1 -4,9 24 13 56 31 WNW 997,7 35 0,0
14.01.2019 14:00:00 2,0 -6,4 28 15 58 31 WNW 996,9 41 0,0
14.01.2019 13:00:00 2,0 -7,3 26 14 58 31 NW 996,0 36 0,0
14.01.2019 12:00:00 1,9 -7,2 28 15 61 33 NW 995,2 40 0,2
14.01.2019 11:00:00 0,8 -7,5 23 12 61 33 NNW 994,9 50 0,1
14.01.2019 10:00:00 0,5 -7,0 26 14 55 30 NW 993,7 46 1,4
14.01.2019 09:00:00 0,1 -6,5 25 14 58 31 NNW 993,1 47 0,1
14.01.2019 08:00:00 0,9 -7,4 24 13 59 32 NW 991,7 50 0,0
14.01.2019 07:00:00 0,6 -7,4 29 15 61 33 NW 990,7 24 -
14.01.2019 06:00:00 0,1 -5,6 25 14 61 33 NNW 990,2 50 0,0
14.01.2019 05:00:00 -0,3 -2,8 23 12 60 33 NW 989,5 3,3 0,2
14.01.2019 04:00:00 -0,8 -3,3 23 12 60 33 NNW 989,2 10 0,0
14.01.2019 03:00:00 0,5 -2,4 31 17 47 26 NNW 988,0 7 0,0
14.01.2019 02:00:00 1,5 -5,0 22 12 46 25 NNW 986,8 50 0,0
14.01.2019 01:00:00 0,8 -2,6 23 12 62 33 N 984,9 50 0,0
14.01.2019 00:00:00 1,3 -1,4 31 17 62 33 NNW 984,2 50 0,0
13.01.2019 23:00:00 2,7 0,3 36 19 61 33 NNW 982,3 50 0,0
13.01.2019 22:00:00 4,4 2,7 22 12 44 24 NNW 980,5 23 0,0
13.01.2019 21:00:00 4,9 3,0 20 11 44 24 NW 979,5 18 0,0
13.01.2019 20:00:00 5,1 3,6 22 12 48 26 WNW 978,7 16 0,0
13.01.2019 19:00:00 5,4 3,9 24 13 48 26 WNW 978,1 15 0,1
13.01.2019 18:00:00 6,0 4,3 19 10 44 24 W 978,0 9 0,3
13.01.2019 17:00:00 6,5 4,2 20 11 44 24 W 978,7 22 0,0
13.01.2019 16:00:00 6,7 4,7 17 9 39 21 W 979,6 24 0,0
13.01.2019 15:00:00 7,1 5,6 17 9 45 24 W 980,2 27 0,4
13.01.2019 14:00:00 7,0 5,6 19 11 45 24 W 981,6 18 0,2
13.01.2019 13:00:00 7,1 6,2 18 10 37 20 W 983,1 43 0,0
13.01.2019 12:00:00 5,5 5,2 14 8 25 14 SW 984,8 2,9 0,3
13.01.2019 11:00:00 4,6 4,2 15 8 24 13 SSW 986,6 2,7 0,6
13.01.2019 10:00:00 4,6 4,0 13 7 25 13 SW 988,8 4,7 0,4
13.01.2019 09:00:00 4,7 4,1 13 7 25 13 WSW 990,4 10 1,2
13.01.2019 08:00:00 4,6 4,3 12 7 22 12 WSW 991,7 19 0,0
13.01.2019 07:00:00 3,0 2,6 8 4 18 10 SSW 992,8 2,0 0,0
13.01.2019 06:00:00 3,0 2,3 8 4 24 13 WSW 993,9 4,5 0,0
13.01.2019 05:00:00 3,2 2,5 9 5 24 13 W 994,6 10 0,0
13.01.2019 04:00:00 3,4 2,8 11 6 24 13 W 995,4 4,5 0,0
13.01.2019 03:00:00 3,7 3,3 12 7 23 13 WNW 995,8 7 0,0
13.01.2019 02:00:00 3,8 3,4 14 7 21 12 WNW 996,1 3,8 0,0
13.01.2019 01:00:00 3,7 3,3 5 3 25 13 WNW 996,1 29 0,0
13.01.2019 00:00:00 3,8 3,4 11 6 25 13 NNW 996,1 20 0,0
12.01.2019 23:00:00 4,2 3,8 8 5 27 15 NNW 995,9 3,3 0,1
12.01.2019 22:00:00 4,6 4,0 14 8 27 15 WNW 995,6 6 0,2
12.01.2019 21:00:00 4,8 4,2 12 6 25 14 W 995,6 8 0,3
12.01.2019 20:00:00 4,9 4,0 12 6 28 15 W 995,7 17 0,1
12.01.2019 19:00:00 5,1 4,5 14 8 28 15 W 995,7 13 1,1
12.01.2019 18:00:00 4,9 4,6 12 6 21 11 WSW 996,0 8 1,0
12.01.2019 17:00:00 4,3 4,0 8 4 16 9 SSW 996,6 3,4 2,0
12.01.2019 16:00:00 4,3 3,9 10 5 19 11 SSW 997,6 3,1 0,4
12.01.2019 15:00:00 4,5 3,9 9 5 22 12 SSW 998,7 4,6 0,3
12.01.2019 14:00:00 4,7 4,1 11 6 22 12 SW 1000,0 8 0,1
12.01.2019 13:00:00 4,7 4,1 9 5 17 9 WSW 1001,4 11 0,1
12.01.2019 12:00:00 4,1 3,7 9 5 19 10 WSW 1002,7 4,3 0,1
12.01.2019 11:00:00 3,0 2,6 9 5 20 11 SSW 1004,0 1,7 0,5
12.01.2019 10:00:00 3,3 1,7 8 5 19 10 WSW 1005,1 11 0,0
12.01.2019 09:00:00 2,5 1,8 8 4 15 8 WSW 1005,9 12 0,0
12.01.2019 08:00:00 1,3 0,9 6 3 18 10 SW 1006,7 8 0,0
12.01.2019 07:00:00 1,0 0,7 8 4 18 10 SW 1007,2 8 0,0
12.01.2019 06:00:00 0,5 0,2 10 5 14 8 SW 1007,9 7 0,0
12.01.2019 05:00:00 -0,2 -0,6 6 3 14 8 SSW 1008,5 3,7 0,0
12.01.2019 04:00:00 1,0 0,6 9 5 14 8 SW 1009,4 2,1 0,0
12.01.2019 03:00:00 0,6 0,2 9 5 13 7 SW 1009,9 0,9 0,0
12.01.2019 02:00:00 -1,5 -2,2 0 0 8 4 N 1010,5 13 0,0
12.01.2019 01:00:00 -1,3 -2,3 4 2 9 5 SSW 1011,1 16 0,0
12.01.2019 00:00:00 0,2 -0,9 5 3 9 5 WNW 1011,4 50 0,0
11.01.2019 23:00:00 0,9 -0,9 5 3 9 5 WNW 1011,4 50 0,0
11.01.2019 22:00:00 0,6 -1,3 4 2 11 6 WNW 1011,3 50 0,0
11.01.2019 21:00:00 1,1 -1,1 6 3 13 7 NNW 1011,4 50 0,0
11.01.2019 20:00:00 2,2 0,4 6 3 18 10 NNW 1011,0 33 0,0
11.01.2019 19:00:00 2,9 1,3 9 5 20 11 NNW 1010,6 26 0,0
11.01.2019 18:00:00 3,3 2,0 12 6 27 14 NNW 1009,9 16 0,0
11.01.2019 17:00:00 3,6 2,1 14 8 35 19 NNW 1009,3 14 0,0
11.01.2019 16:00:00 4,4 2,6 19 11 35 19 NNW 1008,8 14 0,0
11.01.2019 15:00:00 5,2 3,5 11 6 36 19 NW 1008,2 12 0,0
11.01.2019 14:00:00 5,3 3,6 17 9 37 20 WNW 1008,0 13 0,0
11.01.2019 13:00:00 5,9 3,7 16 9 37 20 WNW 1008,2 17 0,0
11.01.2019 12:00:00 6,1 4,4 19 10 35 19 WNW 1008,8 21 0,0
11.01.2019 11:00:00 6,4 4,9 13 7 30 16 WNW 1009,3 19 0,0
11.01.2019 10:00:00 6,3 4,9 16 9 30 16 WNW 1009,1 16 0,0
11.01.2019 09:00:00 6,3 5,1 13 7 29 16 W 1009,3 15 0,0
11.01.2019 08:00:00 6,1 5,4 15 8 29 16 W 1009,3 12 0,0
11.01.2019 07:00:00 5,3 5,2 8 4 17 9 W 1010,1 - 0,0
11.01.2019 06:00:00 4,1 4,0 5 3 20 11 SSW 1010,9 2,8 0,0
11.01.2019 05:00:00 3,7 3,4 11 6 21 11 SW 1011,6 1,0 0,0
11.01.2019 04:00:00 3,1 2,8 10 5 22 12 SSW 1012,5 1,1 0,0
11.01.2019 03:00:00 2,7 2,4 14 8 24 13 SSW 1013,8 2,9 0,0
11.01.2019 02:00:00 2,3 2,0 13 7 27 15 SSW 1014,8 2,6 0,0

tt = Température de l'air
td = dewpoint
ff = Vitesse du vent
fx = gusts
dd = Direction du vent
ppp = reduced air pressure
vv = visibility
rr = Quantités de précipitations

stations d'obs. à proximité